Location: Arbon
(43.0005°N, 0.7472°E)
Time: 08:57:34
(UTC+00:00)

SR - Pass Details

Date: 02 December 2020
Orbit: 575 x 880 km, 66.7° (Epoch: 21 January)

Event Time Altitude Azimuth Distance (km) Brightness Sun altitude
Rises 00:48:32 0° 338° (NNW) 3,162 - -65.3°
Reaches altitude 10° 00:51:27 10° 355° (N) 2,295 - -65.0°
Maximum altitude 00:55:20 20° 43° (NE) 1,756 - -64.6°
Drops below altitude 10° 00:59:25 10° 90° (E) 2,427 - -64.1°
Sets 01:02:35 0° 107° (ESE) 3,401 - -63.7°
